Location: Lecco
(45.8566°N, 9.3977°E)
Time: 16:47:10
(UTC+02:00)

ISS - Pass Details

Date: 18 July 2018
Orbit: 402 x 408 km, 51.6° (Epoch: 20 July)

Event Time Altitude Azimuth Distance (km) Brightness Sun altitude
Exits shadow 23:58:09 44° 59° (ENE) 576 -3.1 -20.1°
Drops below altitude 10° 00:00:30 10° 62° (ENE) 1,468 -0.9 -20.3°
Sets 00:02:35 0° 62° (ENE) 2,332 0.1 -20.4°
